| time (UTC) | temp C | wind direction | speed KPH | gust KPH | rain 1hr cm | rain 24hr cm | rain mn cm | humidity % | barometer mb |
| 20260906000732 | 26 | 277 | 3.2 | 11.3 | 0.89 | 1.30 | 1.30 | 95 | 1000.1 |
| 20260906000226 | 26 | 70 | 3.2 | 6.4 | 1.07 | 1.27 | 1.27 | 95 | 1000.1 |
| 20260905235721 | 26 | 359 | 3.2 | 6.4 | 0.13 | 1.12 | 1.12 | 95 | 1000.1 |
| 20260905235216 | 26 | 341 | 3.2 | 4.8 | 0.00 | 1.09 | 1.09 | 95 | 1000.2 |
| 20260905234712 | 26 | 341 | 3.2 | 4.8 | 0.18 | 1.09 | 1.09 | 95 | 1000.2 |
| 20260905234206 | 26 | 135 | 3.2 | 4.8 | 0.30 | 1.09 | 1.09 | 95 | 999.9 |
| 20260905233701 | 26 | 258 | 3.2 | 11.3 | 0.00 | 1.04 | 1.04 | 95 | 1000.0 |
| 20260905233200 | 26 | 309 | 3.2 | 9.7 | 0.00 | 1.04 | 1.04 | 95 | 999.9 |
| 20260905232656 | 26 | 329 | 3.2 | 3.2 | 0.00 | 1.04 | 1.04 | 95 | 1000.0 |
| 20260905232151 | 26 | 114 | 1.6 | 4.8 | 0.00 | 1.04 | 1.04 | 95 | 999.7 |
| 20260905231646 | 26 | 94 | 1.6 | 3.2 | 0.00 | 1.04 | 1.04 | 95 | 999.7 |
| 20260905231143 | 26 | 31 | 3.2 | 6.4 | 0.00 | 1.04 | 1.04 | 95 | 999.8 |
| 20260905230633 | 26 | 341 | 8.0 | 11.3 | 3.66 | 1.04 | 1.04 | 95 | 999.8 |
| 20260905230131 | 26 | 213 | 3.2 | 4.8 | 3.66 | 1.04 | 1.04 | 95 | 999.9 |
| 20260905225630 | 26 | 322 | 11.3 | 14.5 | 0.00 | 0.43 | 0.43 | 94 | 1000.0 |
| 20260905225126 | 26 | 322 | 11.3 | 14.5 | 0.00 | 0.43 | 0.43 | 94 | 999.9 |
| 20260905224625 | 26 | 322 | 11.3 | 14.5 | 0.00 | 0.43 | 0.43 | 94 | 999.7 |
| 20260905224124 | 26 | 322 | 11.3 | 14.5 | 0.18 | 0.43 | 0.43 | 94 | 999.7 |
| 20260905223621 | 26 | 309 | 0.0 | 6.4 | 0.00 | 0.41 | 0.41 | 94 | 999.7 |
| 20260905223118 | 26 | 108 | 0.0 | 3.2 | 0.00 | 0.41 | 0.41 | 94 | 999.5 |
| 20260905222613 | 26 | 328 | 4.8 | 11.3 | 0.00 | 0.41 | 0.41 | 94 | 999.7 |
| 20260905222108 | 26 | 90 | 0.0 | 3.2 | 0.00 | 0.41 | 0.41 | 94 | 999.5 |
| 20260905221603 | 26 | 141 | 3.2 | 9.7 | 0.43 | 0.41 | 0.41 | 94 | 999.6 |
| 20260905221059 | 26 | 91 | 1.6 | 1.6 | 0.71 | 0.41 | 0.41 | 94 | 999.5 |
| 20260905220554 | 26 | 39 | 1.6 | 3.2 | 0.79 | 0.33 | 0.33 | 93 | 999.4 |
| 20260905220051 | 26 | 0 | 1.6 | 1.6 | 0.61 | 0.25 | 0.25 | 93 | 999.5 |
| 20260905215549 | 26 | 36 | 3.2 | 9.7 | 0.43 | 0.18 | 0.18 | 93 | 999.4 |
| 20260905215046 | 27 | 71 | 1.6 | 1.6 | 0.79 | 0.15 | 0.15 | 93 | 999.4 |
| 20260905214542 | 27 | 126 | 1.6 | 3.2 | 0.30 | 0.08 | 0.08 | 92 | 999.2 |
| 20260905214037 | 27 | 95 | 0.0 | 1.6 | 0.13 | 0.03 | 0.03 | 92 | 999.2 |
| 20260905213532 | 27 | 71 | 0.0 | 3.2 | 0.00 | 0.00 | 0.00 | 92 | 999.3 |
| 20260905213027 | 27 | 99 | 0.0 | 1.6 | 0.00 | 0.00 | 0.00 | 92 | 999.1 |
| 20260905212522 | 27 | 68 | 0.0 | 4.8 | 0.00 | 0.00 | 0.00 | 92 | 999.1 |
| 20260905212021 | 27 | 263 | 4.8 | 6.4 | 0.00 | 0.00 | 0.00 | 91 | 999.1 |
| 20260905211517 | 27 | 306 | 3.2 | 11.3 | 0.00 | 0.00 | 0.00 | 91 | 999.0 |
| 20260905211013 | 27 | 322 | 6.4 | 11.3 | 0.00 | 0.00 | 0.00 | 91 | 999.0 |
| 20260905210508 | 27 | 97 | 1.6 | 4.8 | 0.00 | 0.00 | 0.00 | 91 | 998.9 |
| 20260905210009 | 27 | 117 | 0.0 | 1.6 | 0.00 | 0.00 | 0.00 | 91 | 998.9 |
| 20260905205508 | 27 | 312 | 6.4 | 11.3 | 0.00 | 0.00 | 0.00 | 91 | 998.6 |
| 20260905205007 | 27 | 48 | 3.2 | 11.3 | 0.00 | 0.00 | 0.00 | 92 | 998.6 |
| 20260905204502 | 27 | 305 | 1.6 | 4.8 | 0.00 | 0.00 | 0.00 | 92 | 998.5 |
| 20260905204002 | 26 | 271 | 6.4 | 9.7 | 0.00 | 0.00 | 0.00 | 92 | 998.0 |
| 20260905203458 | 26 | 174 | 3.2 | 4.8 | 0.00 | 0.00 | 0.00 | 92 | 998.0 |
| 20260905202953 | 26 | 99 | 0.0 | 3.2 | 0.00 | 0.00 | 0.00 | 92 | 998.0 |
| 20260905202448 | 26 | 281 | 1.6 | 4.8 | 0.00 | 0.00 | 0.00 | 92 | 998.1 |
| 20260905201943 | 26 | 101 | 0.0 | 1.6 | 0.00 | 0.00 | 0.00 | 92 | 997.9 |
| 20260905201438 | 26 | 98 | 0.0 | 0.0 | 0.00 | 0.00 | 0.00 | 91 | 997.8 |
| 20260905200933 | 26 | 69 | 0.0 | 1.6 | 0.00 | 0.00 | 0.00 | 92 | 997.8 |
| 20260905200429 | 26 | 353 | 1.6 | 1.6 | 0.00 | 0.00 | 0.00 | 92 | 997.9 |
| 20260905195926 | 26 | 62 | 1.6 | 3.2 | 0.00 | 0.00 | 0.00 | 92 | 997.7 |
| 20260905195417 | 26 | 129 | 0.0 | 1.6 | 0.00 | 0.00 | 0.00 | 91 | 997.6 |
| 20260905194912 | 26 | 129 | 0.0 | 4.8 | 0.00 | 0.00 | 0.00 | 91 | 997.5 |
| 20260905194411 | 26 | 248 | 0.0 | 3.2 | 0.00 | 0.00 | 0.00 | 91 | 997.3 |
| 20260905193906 | 26 | 102 | 0.0 | 1.6 | 0.00 | 0.00 | 0.00 | 91 | 997.4 |
| 20260905193401 | 26 | 106 | 0.0 | 3.2 | 0.00 | 0.00 | 0.00 | 91 | 997.3 |
| 20260905192856 | 26 | 105 | 0.0 | 0.0 | 0.00 | 0.00 | 0.00 | 91 | 997.5 |
| 20260905192352 | 26 | 109 | 0.0 | 3.2 | 0.00 | 0.00 | 0.00 | 91 | 997.4 |
| 20260905191851 | 26 | 113 | 0.0 | 1.6 | 0.00 | 0.00 | 0.00 | 91 | 997.5 |
| 20260905191350 | 26 | 68 | 1.6 | 1.6 | 0.00 | 0.00 | 0.00 | 91 | 997.6 |
| 20260905190849 | 27 | 101 | 0.0 | 3.2 | 0.00 | 0.00 | 0.00 | 91 | 997.7 |
| 20260905190342 | 27 | 80 | 0.0 | 1.6 | 0.00 | 0.00 | 0.00 | 91 | 997.7 |
| 20260905185841 | 27 | 187 | 3.2 | 9.7 | 0.00 | 0.00 | 0.00 | 91 | 997.9 |
| 20260905185337 | 27 | 268 | 8.0 | 12.9 | 0.00 | 0.00 | 0.00 | 91 | 997.8 |
| 20260905184835 | 27 | 297 | 9.7 | 14.5 | 0.00 | 0.00 | 0.00 | 91 | 998.1 |
| 20260905184335 | 27 | 30 | 6.4 | 16.1 | 0.00 | 0.00 | 0.00 | 90 | 998.3 |
| 20260905183833 | 27 | 302 | 6.4 | 22.5 | 0.00 | 0.00 | 0.00 | 91 | 998.3 |
| 20260905183330 | 27 | 266 | 11.3 | 14.5 | 0.00 | 0.00 | 0.00 | 91 | 998.0 |
| 20260905182830 | 27 | 357 | 4.8 | 14.5 | 0.00 | 0.00 | 0.00 | 90 | 998.1 |
| 20260905182329 | 27 | 20 | 4.8 | 12.9 | 0.00 | 0.00 | 0.00 | 90 | 998.1 |
| 20260905181825 | 27 | 66 | 1.6 | 11.3 | 0.00 | 0.00 | 0.00 | 90 | 998.1 |
| 20260905181319 | 27 | 256 | 6.4 | 11.3 | 0.00 | 0.00 | 0.00 | 90 | 998.2 |
| 20260905180818 | 27 | 293 | 11.3 | 16.1 | 0.00 | 0.00 | 0.00 | 90 | 998.3 |
| 20260905180313 | 27 | 290 | 3.2 | 6.4 | 0.00 | 0.00 | 0.00 | 90 | 998.3 |
| 20260905175808 | 27 | 105 | 1.6 | 6.4 | 0.00 | 0.00 | 0.00 | 90 | 998.4 |
| 20260905175306 | 27 | 290 | 6.4 | 14.5 | 0.00 | 0.00 | 0.00 | 90 | 998.6 |
| 20260905174758 | 27 | 30 | 3.2 | 9.7 | 0.00 | 0.00 | 0.00 | 90 | 998.6 |
| 20260905174254 | 27 | 326 | 9.7 | 11.3 | 0.00 | 0.00 | 0.00 | 90 | 998.7 |
| 20260905173749 | 27 | 286 | 8.0 | 20.9 | 0.00 | 0.00 | 0.00 | 90 | 998.6 |
| 20260905173245 | 27 | 343 | 6.4 | 12.9 | 0.00 | 0.00 | 0.00 | 89 | 998.7 |
| 20260905172744 | 27 | 256 | 4.8 | 17.7 | 0.00 | 0.00 | 0.00 | 89 | 998.5 |
| 20260905172243 | 27 | 318 | 4.8 | 17.7 | 0.00 | 0.00 | 0.00 | 89 | 998.5 |
| 20260905171740 | 27 | 306 | 9.7 | 14.5 | 0.00 | 0.00 | 0.00 | 89 | 998.8 |
| 20260905171236 | 27 | 294 | 14.5 | 20.9 | 0.00 | 0.00 | 0.00 | 90 | 998.8 |
| 20260905170732 | 26 | 279 | 8.0 | 17.7 | 0.00 | 0.00 | 0.00 | 90 | 998.7 |
| 20260905170228 | 26 | 353 | 6.4 | 12.9 | 0.00 | 0.00 | 0.00 | 91 | 998.9 |
| 20260905165727 | 27 | 219 | 9.7 | 17.7 | 0.00 | 0.00 | 0.00 | 91 | 999.1 |
| 20260905165222 | 27 | 284 | 9.7 | 16.1 | 0.00 | 0.00 | 0.00 | 91 | 998.9 |
| 20260905164722 | 27 | 299 | 9.7 | 12.9 | 0.00 | 0.00 | 0.00 | 91 | 999.2 |
| 20260905164217 | 27 | 353 | 6.4 | 6.4 | 0.00 | 0.00 | 0.00 | 91 | 999.2 |
| 20260905163713 | 27 | 348 | 4.8 | 14.5 | 0.00 | 0.00 | 0.00 | 91 | 999.4 |
| 20260905163209 | 27 | 292 | 8.0 | 20.9 | 0.00 | 0.00 | 0.00 | 92 | 999.5 |
| 20260905162705 | 27 | 356 | 3.2 | 14.5 | 0.00 | 0.00 | 0.00 | 92 | 999.3 |
| 20260905162204 | 27 | 293 | 4.8 | 16.1 | 0.00 | 0.00 | 0.00 | 92 | 999.1 |
| 20260905161700 | 26 | 348 | 3.2 | 12.9 | 0.00 | 0.00 | 0.00 | 92 | 999.4 |
| 20260905161157 | 26 | 225 | 6.4 | 9.7 | 0.00 | 0.00 | 0.00 | 92 | 999.3 |
| 20260905160656 | 26 | 292 | 4.8 | 4.8 | 0.00 | 0.00 | 0.00 | 92 | 999.1 |
| 20260905160156 | 26 | 312 | 1.6 | 3.2 | 0.00 | 0.00 | 0.00 | 92 | 999.2 |
| 20260905155655 | 26 | 318 | 1.6 | 11.3 | 0.00 | 0.00 | 0.00 | 92 | 999.0 |
| 20260905155155 | 26 | 99 | 1.6 | 6.4 | 0.00 | 0.00 | 0.00 | 92 | 998.8 |
| 20260905154643 | 26 | 339 | 4.8 | 4.8 | 0.00 | 0.00 | 0.00 | 92 | 998.5 |
| 20260905154133 | 27 | 253 | 3.2 | 9.7 | 0.00 | 0.00 | 0.00 | 92 | 998.5 |
| 20260905153629 | 26 | 298 | 3.2 | 14.5 | 0.00 | 0.00 | 0.00 | 93 | 998.4 |
| 20260905153125 | 26 | 56 | 3.2 | 11.3 | 0.00 | 0.00 | 0.00 | 93 | 998.6 |
| 20260905152619 | 26 | 324 | 9.7 | 14.5 | 0.00 | 0.00 | 0.00 | 93 | 998.2 |
| 20260905152114 | 26 | 12 | 1.6 | 12.9 | 0.00 | 0.00 | 0.00 | 94 | 998.0 |
| 20260905151609 | 26 | 344 | 6.4 | 14.5 | 0.00 | 0.00 | 0.00 | 94 | 997.9 |
| 20260905151104 | 26 | 281 | 6.4 | 11.3 | 0.00 | 0.00 | 0.00 | 95 | 997.5 |
| 20260905150559 | 26 | 58 | 9.7 | 11.3 | 0.00 | 0.00 | 0.00 | 95 | 997.1 |
| 20260905150057 | 26 | 246 | 6.4 | 14.5 | 0.00 | 0.00 | 0.00 | 95 | 997.2 |
| 20260905145551 | 26 | 12 | 4.8 | 12.9 | 0.00 | 2.97 | 2.97 | 95 | 997.1 |
| 20260905145050 | 26 | 336 | 3.2 | 6.4 | 0.00 | 2.97 | 2.97 | 95 | 997.1 |
| 20260905144545 | 26 | 317 | 3.2 | 16.1 | 0.00 | 2.97 | 2.97 | 96 | 997.1 |
| 20260905144044 | 26 | 357 | 9.7 | 22.5 | 0.18 | 2.97 | 2.97 | 96 | 997.4 |
| 20260905143544 | 26 | 62 | 4.8 | 14.5 | 0.30 | 2.97 | 2.97 | 96 | 997.3 |
| 20260905143039 | 26 | 11 | 9.7 | 11.3 | 0.30 | 2.95 | 2.95 | 96 | 997.5 |
| 20260905142538 | 26 | 292 | 9.7 | 12.9 | 0.36 | 2.92 | 2.92 | 96 | 997.8 |
| 20260905142033 | 26 | 239 | 6.4 | 11.3 | 0.43 | 2.87 | 2.87 | 96 | 997.7 |
| 20260905141532 | 26 | 19 | 3.2 | 20.9 | 1.19 | 2.84 | 2.84 | 96 | 997.8 |
| 20260905141030 | 26 | 9 | 6.4 | 14.5 | 2.29 | 2.79 | 2.79 | 96 | 998.1 |
| 20260905140529 | 26 | 302 | 6.4 | 33.8 | 2.87 | 2.62 | 2.62 | 96 | 998.1 |
| 20260905140028 | 26 | 297 | 9.7 | 12.9 | 3.66 | 2.36 | 2.36 | 96 | 998.4 |
| 20260905135519 | 26 | 311 | 6.4 | 14.5 | 4.37 | 2.11 | 2.11 | 96 | 998.7 |
| 20260905135013 | 26 | 283 | 6.4 | 12.9 | 2.77 | 1.65 | 1.65 | 95 | 998.4 |
| 20260905134508 | 26 | 319 | 3.2 | 16.1 | 2.34 | 1.32 | 1.32 | 95 | 998.4 |
| 20260905134007 | 26 | 276 | 9.7 | 16.1 | 2.16 | 1.14 | 1.14 | 95 | 998.3 |
| 20260905133502 | 26 | 293 | 9.7 | 17.7 | 1.85 | 0.91 | 0.91 | 95 | 998.2 |
| 20260905133001 | 26 | 284 | 4.8 | 9.7 | 0.97 | 0.76 | 0.76 | 95 | 997.9 |
| 20260905132456 | 26 | 77 | 3.2 | 9.7 | 0.00 | 0.61 | 0.61 | 95 | 997.6 |
| 20260905131951 | 26 | 324 | 6.4 | 9.7 | 0.00 | 0.61 | 0.61 | 95 | 997.7 |
| 20260905131447 | 27 | 77 | 3.2 | 9.7 | 0.30 | 0.61 | 0.61 | 95 | 997.4 |
| 20260905130947 | 27 | 132 | 0.0 | 3.2 | 0.18 | 0.58 | 0.58 | 95 | 997.5 |
| 20260905130441 | 27 | 84 | 0.0 | 3.2 | 0.00 | 0.56 | 0.56 | 95 | 997.4 |
| 20260905125941 | 27 | 108 | 0.0 | 1.6 | 0.00 | 0.56 | 0.56 | 95 | 997.5 |
| 20260905125436 | 27 | 263 | 0.0 | 1.6 | 0.00 | 0.56 | 0.56 | 95 | 997.4 |
| 20260905124931 | 27 | 45 | 0.0 | 4.8 | 0.00 | 0.56 | 0.56 | 95 | 997.4 |
| 20260905124428 | 26 | 323 | 4.8 | 9.7 | 0.00 | 0.56 | 0.56 | 95 | 997.5 |
| 20260905123928 | 26 | 338 | 3.2 | 6.4 | 0.00 | 0.56 | 0.56 | 95 | 997.4 |
| 20260905123424 | 26 | 98 | 0.0 | 3.2 | 0.00 | 0.56 | 0.56 | 95 | 997.5 |
| 20260905122919 | 26 | 316 | 3.2 | 11.3 | 0.00 | 0.56 | 0.56 | 95 | 997.7 |
| 20260905122419 | 26 | 268 | 1.6 | 6.4 | 0.00 | 0.56 | 0.56 | 95 | 997.6 |
| 20260905121914 | 26 | 254 | 3.2 | 9.7 | 0.00 | 0.56 | 0.56 | 95 | 998.2 |
| 20260905121410 | 26 | 311 | 4.8 | 9.7 | 0.00 | 0.56 | 0.56 | 95 | 998.1 |
| 20260905120909 | 26 | 292 | 4.8 | 9.7 | 0.00 | 0.56 | 0.56 | 95 | 998.1 |
| 20260905120404 | 26 | 42 | 3.2 | 6.4 | 0.00 | 0.56 | 0.56 | 95 | 998.3 |
| 20260905115859 | 26 | 79 | 6.4 | 9.7 | 0.00 | 0.56 | 0.56 | 95 | 998.0 |
| 20260905115358 | 26 | 29 | 4.8 | 11.3 | 0.00 | 0.56 | 0.56 | 95 | 998.1 |
| 20260905114853 | 26 | 301 | 4.8 | 11.3 | 0.00 | 0.56 | 0.56 | 95 | 998.0 |
| 20260905114352 | 27 | 289 | 9.7 | 14.5 | 0.13 | 0.56 | 0.56 | 95 | 998.1 |
| 20260905113846 | 27 | 314 | 3.2 | 4.8 | 0.30 | 0.56 | 0.56 | 95 | 998.0 |
| 20260905113342 | 27 | 297 | 9.7 | 12.9 | 0.30 | 0.53 | 0.53 | 95 | 998.0 |
| 20260905112837 | 27 | 26 | 0.0 | 3.2 | 0.30 | 0.51 | 0.51 | 95 | 998.0 |
| 20260905112332 | 27 | 302 | 3.2 | 4.8 | 0.30 | 0.46 | 0.46 | 95 | 998.0 |
| 20260905111827 | 27 | 87 | 3.2 | 4.8 | 0.43 | 0.46 | 0.46 | 95 | 997.8 |
| 20260905111326 | 27 | 276 | 3.2 | 4.8 | 0.13 | 0.41 | 0.41 | 95 | 997.5 |
| 20260905110826 | 27 | 55 | 0.0 | 3.2 | 0.00 | 0.38 | 0.38 | 95 | 997.4 |
| 20260905110319 | 27 | 35 | 3.2 | 4.8 | 0.18 | 0.38 | 0.38 | 95 | 997.7 |
| 20260905105815 | 27 | 259 | 4.8 | 9.7 | 0.36 | 0.38 | 0.38 | 95 | 997.6 |
| 20260905105314 | 27 | 46 | 0.0 | 6.4 | 0.79 | 0.36 | 0.36 | 95 | 997.4 |
| 20260905104808 | 27 | 318 | 1.6 | 3.2 | 0.71 | 0.33 | 0.33 | 95 | 997.4 |
| 20260905104306 | 27 | 264 | 1.6 | 3.2 | 0.13 | 0.23 | 0.23 | 95 | 997.4 |
| 20260905103805 | 27 | 332 | 3.2 | 6.4 | 0.00 | 0.20 | 0.20 | 95 | 997.1 |
| 20260905103300 | 27 | 320 | 4.8 | 6.4 | 0.00 | 0.20 | 0.20 | 95 | 997.1 |
| 20260905102756 | 27 | 68 | 0.0 | 6.4 | 0.00 | 0.20 | 0.20 | 95 | 997.0 |
| 20260905102253 | 27 | 283 | 3.2 | 4.8 | 0.00 | 0.20 | 0.20 | 95 | 996.8 |
| 20260905101752 | 27 | 285 | 3.2 | 4.8 | 0.18 | 0.20 | 0.20 | 95 | 997.0 |
| 20260905101251 | 27 | 340 | 1.6 | 4.8 | 0.18 | 0.20 | 0.20 | 95 | 996.8 |
| 20260905100745 | 27 | 321 | 3.2 | 4.8 | 0.00 | 0.18 | 0.18 | 95 | 996.9 |
| 20260905100241 | 27 | 9 | 3.2 | 9.7 | 0.00 | 0.18 | 0.18 | 95 | 997.0 |
| 20260905095741 | 27 | 69 | 3.2 | 3.2 | 0.00 | 0.18 | 0.18 | 95 | 996.9 |
| 20260905095240 | 27 | 83 | 0.0 | 1.6 | 0.00 | 0.18 | 0.18 | 95 | 997.0 |
| 20260905094735 | 27 | 81 | 0.0 | 1.6 | 0.00 | 0.18 | 0.18 | 95 | 996.7 |
| 20260905094230 | 27 | 45 | 3.2 | 4.8 | 0.00 | 0.18 | 0.18 | 95 | 996.8 |
| 20260905093724 | 27 | 359 | 3.2 | 4.8 | 0.00 | 0.18 | 0.18 | 95 | 996.8 |
| 20260905093221 | 27 | 77 | 1.6 | 9.7 | 0.00 | 0.18 | 0.18 | 95 | 996.9 |
| 20260905092716 | 27 | 6 | 3.2 | 6.4 | 0.00 | 0.18 | 0.18 | 95 | 996.9 |
| 20260905092211 | 27 | 59 | 4.8 | 11.3 | 0.00 | 0.18 | 0.18 | 94 | 996.7 |
| 20260905091710 | 27 | 24 | 6.4 | 12.9 | 0.00 | 0.18 | 0.18 | 94 | 996.8 |
| 20260905091206 | 27 | 37 | 6.4 | 6.4 | 0.00 | 0.18 | 0.18 | 94 | 996.8 |
| 20260905090705 | 27 | 54 | 3.2 | 6.4 | 0.00 | 0.18 | 0.18 | 94 | 996.6 |
| 20260905090201 | 27 | 350 | 3.2 | 14.5 | 0.00 | 0.18 | 0.18 | 94 | 996.5 |
| 20260905085659 | 27 | 34 | 3.2 | 9.7 | 0.00 | 0.18 | 0.18 | 94 | 996.7 |
| 20260905085154 | 27 | 52 | 3.2 | 6.4 | 0.00 | 0.18 | 0.18 | 94 | 996.5 |
| 20260905084649 | 28 | 35 | 4.8 | 9.7 | 0.13 | 0.18 | 0.18 | 94 | 996.4 |
| 20260905084143 | 28 | 11 | 6.4 | 14.5 | 0.13 | 0.18 | 0.18 | 94 | 996.4 |
| 20260905083638 | 28 | 58 | 3.2 | 11.3 | 0.00 | 0.15 | 0.15 | 94 | 996.4 |
| 20260905083135 | 28 | 59 | 3.2 | 6.4 | 0.00 | 0.15 | 0.15 | 94 | 996.1 |
| 20260905082630 | 28 | 30 | 4.8 | 6.4 | 0.00 | 0.15 | 0.15 | 93 | 995.9 |
| 20260905082126 | 28 | 48 | 8.0 | 12.9 | 0.00 | 0.15 | 0.15 | 93 | 996.0 |
| 20260905081626 | 28 | 321 | 3.2 | 14.5 | 0.00 | 0.15 | 0.15 | 93 | 996.0 |
| 20260905081125 | 28 | 325 | 6.4 | 9.7 | 0.00 | 0.15 | 0.15 | 92 | 996.0 |
| 20260905080620 | 28 | 76 | 3.2 | 14.5 | 0.00 | 0.15 | 0.15 | 92 | 995.9 |
| 20260905080115 | 28 | 352 | 4.8 | 9.7 | 0.00 | 0.15 | 0.15 | 92 | 995.6 |
| 20260905075614 | 29 | 25 | 4.8 | 4.8 | 0.00 | 0.15 | 0.15 | 91 | 995.8 |
| 20260905075113 | 29 | 60 | 1.6 | 9.7 | 0.00 | 0.15 | 0.15 | 91 | 995.7 |
| 20260905074613 | 30 | 34 | 4.8 | 6.4 | 0.00 | 0.15 | 0.15 | 90 | 995.6 |
| 20260905074108 | 30 | 74 | 3.2 | 11.3 | 0.00 | 0.15 | 0.15 | 90 | 995.5 |
| 20260905073604 | 29 | 40 | 1.6 | 4.8 | 0.00 | 0.15 | 0.15 | 90 | 995.6 |
| 20260905073100 | 29 | 68 | 3.2 | 6.4 | 0.00 | 0.15 | 0.15 | 90 | 995.5 |
| 20260905072559 | 30 | 38 | 6.4 | 9.7 | 0.00 | 0.15 | 0.15 | 90 | 995.7 |
| 20260905072055 | 30 | 17 | 3.2 | 9.7 | 0.00 | 0.15 | 0.15 | 91 | 995.4 |
| 20260905071552 | 29 | 1 | 8.0 | 9.7 | 0.00 | 0.15 | 0.15 | 90 | 995.7 |
| 20260905071052 | 29 | 356 | 6.4 | 9.7 | 0.00 | 0.15 | 0.15 | 90 | 995.7 |
| 20260905070547 | 30 | 30 | 4.8 | 12.9 | 0.00 | 0.15 | 0.15 | 90 | 995.5 |
| 20260905070043 | 30 | 10 | 4.8 | 4.8 | 0.00 | 0.15 | 0.15 | 90 | 995.5 |
| 20260905065540 | 30 | 11 | 6.4 | 6.4 | 0.00 | 0.15 | 0.15 | 90 | 995.6 |
| 20260905065036 | 30 | 34 | 3.2 | 4.8 | 0.00 | 0.15 | 0.15 | 90 | 995.4 |
| 20260905064536 | 30 | 65 | 1.6 | 6.4 | 0.00 | 0.15 | 0.15 | 90 | 995.3 |
| 20260905064031 | 30 | 316 | 1.6 | 4.8 | 0.00 | 0.15 | 0.15 | 90 | 995.4 |
| 20260905063530 | 30 | 55 | 1.6 | 4.8 | 0.00 | 0.15 | 0.15 | 90 | 995.1 |
| 20260905063027 | 30 | 55 | 3.2 | 3.2 | 0.00 | 0.15 | 0.15 | 90 | 995.4 |
| 20260905062526 | 30 | 35 | 3.2 | 4.8 | 0.00 | 0.15 | 0.15 | 90 | 995.3 |
| 20260905062027 | 30 | 87 | 1.6 | 4.8 | 0.00 | 0.15 | 0.15 | 90 | 995.3 |
| 20260905061522 | 30 | 63 | 3.2 | 4.8 | 0.00 | 0.15 | 0.15 | 90 | 995.3 |
| 20260905061021 | 30 | 83 | 1.6 | 11.3 | 0.00 | 0.15 | 0.15 | 89 | 995.1 |
| 20260905060517 | 30 | 39 | 4.8 | 9.7 | 0.00 | 0.15 | 0.15 | 89 | 995.2 |
| 20260905060013 | 30 | 30 | 4.8 | 9.7 | 0.00 | 0.15 | 0.15 | 91 | 995.1 |
| 20260905055511 | 30 | 40 | 6.4 | 6.4 | 0.00 | 0.15 | 0.15 | 91 | 995.2 |
| 20260905055006 | 30 | 153 | 3.2 | 12.9 | 0.00 | 0.15 | 0.15 | 91 | 995.1 |
| 20260905054502 | 30 | 64 | 6.4 | 14.5 | 0.00 | 0.15 | 0.15 | 91 | 995.4 |
| 20260905053957 | 30 | 54 | 3.2 | 14.5 | 0.00 | 0.15 | 0.15 | 92 | 995.3 |
| 20260905053451 | 29 | 48 | 4.8 | 12.9 | 0.00 | 0.15 | 0.15 | 93 | 995.4 |
| 20260905052947 | 29 | 79 | 8.0 | 12.9 | 0.00 | 0.15 | 0.15 | 93 | 995.6 |
| 20260905052447 | 29 | 50 | 6.4 | 12.9 | 0.00 | 0.15 | 0.15 | 93 | 995.7 |
| 20260905051946 | 28 | 66 | 6.4 | 11.3 | 0.00 | 0.15 | 0.15 | 93 | 996.0 |
| 20260905051441 | 28 | 49 | 9.7 | 12.9 | 0.00 | 0.15 | 0.15 | 93 | 996.0 |
| 20260905050939 | 28 | 25 | 8.0 | 11.3 | 0.00 | 0.15 | 0.15 | 93 | 995.9 |
| 20260905050434 | 28 | 63 | 3.2 | 4.8 | 0.00 | 0.15 | 0.15 | 93 | 996.2 |
| 20260905045930 | 28 | 48 | 3.2 | 9.7 | 0.00 | 0.15 | 0.15 | 92 | 996.2 |
| 20260905045420 | 28 | 64 | 6.4 | 12.9 | 0.00 | 0.15 | 0.15 | 92 | 996.2 |
| 20260905044915 | 28 | 5 | 4.8 | 9.7 | 0.00 | 0.15 | 0.15 | 92 | 996.3 |
| 20260905044409 | 28 | 23 | 6.4 | 9.7 | 0.00 | 0.15 | 0.15 | 92 | 996.3 |
| 20260905043909 | 29 | 36 | 4.8 | 11.3 | 0.00 | 0.15 | 0.15 | 92 | 996.2 |
| 20260905043403 | 29 | 36 | 3.2 | 9.7 | 0.00 | 0.15 | 0.15 | 92 | 996.0 |
| 20260905042903 | 29 | 63 | 6.4 | 11.3 | 0.00 | 0.15 | 0.15 | 92 | 996.1 |
| 20260905042358 | 28 | 40 | 6.4 | 12.9 | 0.00 | 0.15 | 0.15 | 92 | 996.1 |
| 20260905041852 | 29 | 96 | 3.2 | 11.3 | 0.00 | 0.15 | 0.15 | 93 | 996.2 |
| 20260905041349 | 29 | 1 | 9.7 | 12.9 | 0.00 | 0.15 | 0.15 | 92 | 996.0 |
| 20260905040849 | 28 | 95 | 3.2 | 11.3 | 0.00 | 0.15 | 0.15 | 92 | 996.2 |
| 20260905040348 | 28 | 91 | 9.7 | 16.1 | 0.00 | 0.15 | 0.15 | 92 | 996.2 |
| 20260905035848 | 29 | 49 | 3.2 | 11.3 | 0.00 | 0.15 | 0.15 | 91 | 996.5 |
| 20260905035343 | 28 | 39 | 1.6 | 6.4 | 0.00 | 0.15 | 0.15 | 92 | 996.5 |
| 20260905034840 | 28 | 84 | 9.7 | 11.3 | 0.00 | 0.15 | 0.15 | 91 | 996.8 |
| 20260905034335 | 28 | 98 | 6.4 | 11.3 | 0.00 | 0.15 | 0.15 | 91 | 996.6 |
| 20260905033833 | 28 | 105 | 3.2 | 6.4 | 0.00 | 0.15 | 0.15 | 91 | 996.9 |
| 20260905033329 | 28 | 93 | 6.4 | 12.9 | 0.00 | 0.15 | 0.15 | 90 | 997.0 |
| 20260905032828 | 28 | 71 | 3.2 | 9.7 | 0.00 | 0.15 | 0.15 | 90 | 997.2 |
| 20260905032324 | 28 | 165 | 6.4 | 9.7 | 0.00 | 0.15 | 0.15 | 89 | 997.4 |
| 20260905031819 | 28 | 113 | 6.4 | 9.7 | 0.00 | 0.15 | 0.15 | 88 | 997.2 |
| 20260905031315 | 28 | 126 | 9.7 | 11.3 | 0.00 | 0.15 | 0.15 | 88 | 997.5 |
| 20260905030805 | 28 | 186 | 6.4 | 9.7 | 0.00 | 0.15 | 0.15 | 86 | 997.5 |
| 20260905030300 | 29 | 181 | 9.7 | 11.3 | 0.00 | 0.15 | 0.15 | 85 | 997.7 |
| 20260905025759 | 30 | 143 | 8.0 | 12.9 | 0.00 | 0.15 | 0.15 | 83 | 997.8 |
| 20260905025254 | 30 | 136 | 9.7 | 12.9 | 0.00 | 0.15 | 0.15 | 81 | 998.0 |
| 20260905024750 | 30 | 50 | 3.2 | 11.3 | 0.00 | 0.15 | 0.15 | 81 | 997.7 |
| 20260905024247 | 30 | 73 | 6.4 | 11.3 | 0.00 | 0.15 | 0.15 | 81 | 998.2 |
| 20260905023747 | 30 | 129 | 3.2 | 14.5 | 0.00 | 0.15 | 0.15 | 81 | 998.2 |
| 20260905023241 | 30 | 204 | 8.0 | 11.3 | 0.00 | 0.15 | 0.15 | 81 | 998.4 |
| 20260905022741 | 30 | 176 | 16.1 | 22.5 | 0.00 | 0.15 | 0.15 | 80 | 998.4 |
| 20260905022236 | 30 | 132 | 3.2 | 12.9 | 0.00 | 0.15 | 0.15 | 80 | 998.3 |
| 20260905021731 | 30 | 151 | 14.5 | 17.7 | 0.00 | 0.15 | 0.15 | 80 | 998.3 |
| 20260905021226 | 30 | 257 | 14.5 | 25.7 | 0.00 | 0.15 | 0.15 | 78 | 998.3 |
| 20260905020721 | 30 | 116 | 4.8 | 14.5 | 0.00 | 0.15 | 0.15 | 80 | 998.3 |
| 20260905020216 | 30 | 184 | 4.8 | 14.5 | 0.00 | 0.15 | 0.15 | 78 | 998.4 |
| 20260905015715 | 30 | 90 | 6.4 | 11.3 | 0.00 | 0.15 | 0.15 | 78 | 998.2 |
| 20260905015214 | 30 | 82 | 8.0 | 12.9 | 0.00 | 0.15 | 0.15 | 78 | 998.3 |
| 20260905014713 | 30 | 78 | 6.4 | 11.3 | 0.00 | 0.15 | 0.15 | 79 | 998.1 |
| 20260905014209 | 30 | 133 | 12.9 | 17.7 | 0.00 | 0.15 | 0.15 | 78 | 998.4 |
| 20260905013705 | 30 | 64 | 6.4 | 12.9 | 0.00 | 0.15 | 0.15 | 80 | 998.5 |
| 20260905013200 | 30 | 159 | 12.9 | 24.1 | 0.00 | 0.15 | 0.15 | 80 | 998.5 |
| 20260905012655 | 29 | 153 | 6.4 | 14.5 | 0.00 | 0.15 | 0.15 | 82 | 998.6 |
| 20260905012151 | 29 | 144 | 11.3 | 16.1 | 0.00 | 0.15 | 0.15 | 81 | 998.7 |
| 20260905011648 | 29 | 102 | 12.9 | 20.9 | 0.00 | 0.15 | 0.15 | 80 | 998.9 |
| 20260905011143 | 29 | 159 | 11.3 | 17.7 | 0.00 | 0.15 | 0.15 | 81 | 999.0 |
| 20260905010638 | 29 | 158 | 6.4 | 14.5 | 0.00 | 0.15 | 0.15 | 81 | 999.0 |
| 20260905010134 | 29 | 121 | 4.8 | 20.9 | 0.00 | 0.15 | 0.15 | 82 | 999.1 |
| 20260905005630 | 29 | 160 | 8.0 | 16.1 | 0.00 | 0.15 | 0.15 | 82 | 999.1 |
| 20260905005125 | 29 | 139 | 11.3 | 14.5 | 0.00 | 0.15 | 0.15 | 82 | 999.2 |
| 20260905004625 | 29 | 118 | 1.6 | 14.5 | 0.00 | 0.15 | 0.15 | 83 | 999.2 |
| 20260905004120 | 28 | 147 | 9.7 | 16.1 | 0.00 | 0.15 | 0.15 | 83 | 999.2 |
| 20260905003616 | 29 | 233 | 9.7 | 14.5 | 0.00 | 0.15 | 0.15 | 83 | 999.1 |
| 20260905003111 | 28 | 165 | 9.7 | 14.5 | 0.00 | 0.15 | 0.15 | 83 | 999.2 |
| 20260905002606 | 29 | 110 | 6.4 | 14.5 | 0.00 | 0.15 | 0.15 | 83 | 999.4 |
| 20260905002101 | 29 | 171 | 12.9 | 16.1 | 0.00 | 0.15 | 0.15 | 82 | 999.5 |
| 20260905001556 | 28 | 131 | 8.0 | 14.5 | 0.00 | 0.15 | 0.15 | 84 | 999.6 |
| 20260905001050 | 28 | 150 | 11.3 | 17.7 | 0.00 | 0.15 | 0.15 | 85 | 999.6 |